Weather Service Report


588 
ASUS41 KBTV 051310
RWRBTV
VERMONT REGIONAL WEATHER ROUNDUP
NATIONAL WEATHER SERVICE BURLINGTON VT
900 AM EDT WED AUG 05 2015

NOTE: "FAIR" INDICATES FEW OR NO CLOUDS BELOW 12,000 FEET WITH NO 
SIGNIFICANT WEATHER AND/OR OBSTRUCTIONS TO VISIBILITY.

* THESE REPORTS ARE NOT UNDER NWS QUALITY CONTROL AND/OR DO NOT
  REPORT WEATHER SUCH AS PRECIPITATION AND FOG.

VTZ001>019-051400-
_____VERMONT_____

  
CITY           SKY/WX    TMP DP  RH WIND       PRES   REMARKS
BURLINGTON     PTSUNNY   69  56  62 CALM      29.86F                  
MONTPELIER     PTSUNNY   62  58  86 CALM      29.92S                  
MORRISVILLE    PTSUNNY   65  59  81 N3        29.89S                  
ST. JOHNSBURY*   N/A     64  58  80 MISG      29.86S                  
LYNDONVILLE*   CLOUDY    59  58  97 CALM      29.91R                  
MIDDLEBURY*    FAIR      69  59  70 CALM      29.88S                  
RUTLAND*       SUNNY     66  54  63 SW6       29.90S                  
SPRINGFIELD    MOSUNNY   60  59  96 CALM      29.90S                  
HIGHGATE*      PTSUNNY   66  58  77 SW6       29.85S                  
NEWPORT*       FAIR      64  58  81 SW7       29.88S                  
BENNINGTON     PTSUNNY   69  59  70 W6        29.93R                  
SUTTON*          N/A     61 N/A N/A MISG        N/A                   

_____LAKE CHAMPLAIN_____

  
CITY           SKY/WX    TMP DP  RH WIND       PRES   REMARKS

$$

NYZ007-026>031-035-052-083-051400-
_____NORTHERN NEW YORK_____

  
CITY           SKY/WX    TMP DP  RH WIND       PRES   REMARKS
PLATTSBURGH    MOSUNNY   69  57  65 VRB3      29.85S                  
SARANAC LAKE   MOSUNNY   61  55  81 W10       29.89S                  
MASSENA        PTSUNNY   64  59  83 W8        29.88S                  
OGDENSBURG*    MOSUNNY   66  59  77 W8        29.89S                  
POTSDAM*       CLOUDY    63  61  94 W9        29.89S                  
WATERTOWN      SUNNY     67  57  70 W7        29.92R                  
FT DRUM        MOSUNNY   64  57  78 VRB3      29.91S                  
ALBANY         MOSUNNY   69  59  70 W8        29.92S                  
GLENS FALLS    SUNNY     70  57  63 SW8       29.89S                  

$$
NHZ002-005-011-051400-
_____NEW HAMPSHIRE_____

  
CITY           SKY/WX    TMP DP  RH WIND       PRES   REMARKS
LEBANON        SUNNY     69  60  73 VRB3      29.88S                  
KEENE          SUNNY     68  54  60 S5        29.90F                  
MT WASHINGTON  FOG       43  43 100 W30         N/A  VSB 0            
PLYMOUTH       PTSUNNY   58  58 100 CALM      29.88F                  
WHITEFIELD     CLOUDY    62  58  86 NW3       29.89R                  

$$

_____REGIONAL QUEBEC LOCATIONS_____

  
CITY           SKY/WX    TMP DP  RH WIND       PRES   REMARKS
MONTREAL       PTSUNNY   64  59  82 SW10      29.83S                  
QUEBEC CITY    PTSUNNY   63  59  88 W9        29.79S                  
SHERBROOKE     PTSUNNY   63  59  88 S5        29.84F                  

_____REGIONAL ONTARIO LOCATIONS_____

  
CITY           SKY/WX    TMP DP  RH WIND       PRES   REMARKS
OTTAWA         PTSUNNY   63  59  88 W14G20    29.87S                  

______KEY______
VSB  - VISIBILITY IN MILES
WCI  - WIND CHILL INDEX
HX   - HEAT INDEX
$$
NNNN

Return to Home page


Western Regional Climate Center, wrcc@dri.edu